Portada
METAR-TAF:

METAR-TAF

Aeroports :

Pekanbaru, Indonèsia

latitud: 00-28N, longitud: 101-27E, altitud: 31 m

Observació

L'informe es va fer fa 29 minuts, a les 00:30 UTC
Vent 5 kt del Sud/Sud-Oest
Temperatura 25°C
Humitat 94%
Pressió 1008 hPa
Visibilitat: 3000 m
Cel ennuvolat a una alçada de 1000 ft
pluja

METAR: WIBB 260030Z 20005KT 3000 -RA BKN010 25/24 Q1008

Hora: 07:59 (00:59 UTC)


TAF: manca

Observacions i pronòstics meteorològics de més de 4000 aeroports (METAR i TAF).

Les estacions disponibles són els punts grocs i vermells al mapa.

Posi el ratolí al punt desitjat per veure el nom de l'estació.

Feu clic per veure les observacions i els pronòstics meteorològics.

Per canviar el mapa: feu clic els botons verds amb una creu de color negre per apropar; al botó verd amb un guió per allunyar la imatge; o en les fletxes verdes per a mapes adjacents.


METAR-TAF: